Probability
0 0 0 0 0 1 2 3 3 3 2 1 0 0 0 0 0 0 0 0 0 0 0 0 0 0 0 0 0 0 0 0 0 0 0 0 0 0 0 0 0 0 0
0 0 0 0 0 1 2 3 3 2 2 1 0 0 0 0 0 0 0 0 0 0 0 0 0 0 0 0 0 0 0 0 0 0 0 0 0 0 0 0 0 0 0
0 0 0 0 0 1 2 3 3 3 3 2 1 0 0 0 0 0 0 0 0 0 0 0 0 0 0 0 0 0 0 0 0 0 0 0 0 0 0 0 0 0 0
0 0 0 0 0 1 2 3 3 3 3 2 1 0 0 0 0 0 0 0 0 0 0 0 0 0 0 0 0 0 0 0 0 0 0 0 0 0 0 0 0 0 0
0 0 0 0 0 1 2 3 3 3 2 2 1 0 0 0 0 0 0 0 0 0 0 0 0 0 0 0 0 0 0 0 0 0 0 0 0 0 0 0 0 0 0
0 0 0 0 0 1 2 3 3 3 3 2 1 0 0 0 0 0 0 0 0 0 0 0 0 0 0 0 0 0 0 0 0 0 0 0 0 0 0 0 0 0 0
0 0 0 0 0 1 2 3 3 3 3 3 1 0 0 0 0 0 0 0 0 0 0 0 0 0 0 0 0 0 0 0 0 0 0 0 0 0 0 0 0 0 0
1 0 0 0 0 1 2 3 3 3 3 3 2 1 0 0 0 0 0 0 0 0 0 0 0 0 0 0 0 0 0 0 0 0 0 0 0 0 0 0 0 0 0
2 1 0 0 0 1 3 3 3 3 3 3 2 1 0 0 0 0 0 0 0 0 0 0 0 0 0 0 0 0 0 0 0 0 0 0 0 0 0 0 0 0 0
2 1 0 0 1 2 3 3 3 3 3 3 2 1 0 0 0 0 0 0 0 0 0 0 0 0 0 0 0 0 0 0 0 0 0 0 0 0 0 0 0 0 0
2 1 0 1 2 3 3 3 3 3 3 3 3 1 1 1 1 2 2 1 0 0 0 0 0 0 0 0 0 0 0 0 0 0 0 0 0 0 0 0 0 0 0
2 1 0 1 2 3 3 3 3 3 3 3 2 2 2 2 3 4 3 1 0 0 0 0 0 0 0 0 0 0 0 0 0 0 0 0 0 0 0 0 0 0 0
1 0 0 1 2 3 3 3 3 3 3 3 1 1 2 3 3 4 3 1 0 0 0 0 0 0 0 0 0 0 0 0 0 0 0 0 0 0 0 0 0 0 0
0 0 0 1 3 3 3 3 3 3 3 3 1 1 2 3 3 2 1 0 0 0 0 0 0 0 0 0 0 0 0 0 0 0 0 0 0 0 0 0 0 0 0
0 0 0 2 3 3 3 3 3 3 3 3 3 2 2 2 2 1 0 0 0 0 0 0 0 0 0 0 0 0 0 0 0 0 0 0 0 0 0 0 0 0 0
0 0 0 1 2 3 3 3 3 3 3 3 3 2 1 1 1 0 0 0 0 0 0 0 0 0 0 0 0 0 0 0 0 0 0 0 0 0 0 0 0 0 0
0 0 0 0 1 2 3 3 3 3 3 3 2 1 0 0 0 0 0 0 0 0 0 0 0 0 0 0 0 0 0 0 0 0 0 0 0 0 0 0 0 0 0
0 0 0 0 0 1 2 3 3 3 3 3 1 0 1 1 0 0 0 0 0 0 0 0 0 0 0 0 0 0 0 0 0 0 0 0 0 0 0 0 0 0 0
0 0 0 0 0 0 1 1 2 2 2 2 1 1 2 2 1 0 0 0 0 0 0 0 0 0 0 0 0 0 0 0 0 0 0 0 0 0 0 0 0 0 0
0 0 0 0 0 0 0 0 1 1 1 1 0 1 3 3 2 1 0 0 0 0 0 0 0 0 0 0 0 0 0 0 0 0 0 0 0 0 0 0 0 0 0
0 0 0 0 0 0 0 0 0 0 0 0 1 2 3 3 2 1 0 0 0 0 0 0 0 0 0 0 0 0 0 0 0 0 0 0 0 0 0 0 0 0 0
0 0 0 0 0 0 0 0 0 0 0 0 1 2 2 2 1 0 0 0 0 0 0 0 0 0 0 0 0 0 0 0 0 0 0 0 0 0 0 0 0 0 0
0 0 0 0 0 0 0 0 0 0 1 1 0 1 1 1 0 0 0 0 0 0 0 0 0 0 0 0 0 0 0 0 0 0 0 0 0 0 0 0 0 0 0
1 1 0 0 0 0 0 0 0 1 2 1 0 0 0 0 0 0 0 0 0 0 0 0 0 0 0 0 0 0 0 0 0 0 0 0 0 0 0 0 0 0 0
2 1 0 0 0 0 0 0 0 1 2 1 0 0 0 0 0 0 0 0 0 0 0 0 0 0 0 0 0 0 0 0 0 0 0 0 0 0 0 0 0 0 0
1 1 0 0 0 0 0 0 0 1 1 0 0 0 0 0 0 0 0 0 0 0 0 0 0 0 0 0 0 0 0 0 0 0 0 0 0 0 0 0 0 0 0
Wind_Speed
9 7 6 4 4 5 6 6 5 4 3 2 2 2 2 2 3 3 4 4 5 5 4 4 3 3 3 4 4 4 5 4 4 3 3 3 2 2 1 2 2 3 3
10 8 6 5 4 5 5 5 5 5 4 2 1 2 2 2 3 2 3 4 4 5 5 4 3 3 2 4 4 4 3 4 4 3 3 3 4 4 3 2 2 3 2
11 10 8 7 5 5 5 5 5 5 4 3 2 2 2 1 2 2 2 2 3 3 4 4 4 3 3 3 3 4 4 3 4 3 3 2 2 4 3 3 3 3 2
9 9 8 7 6 5 4 5 5 5 4 4 2 2 2 2 2 2 2 2 3 4 4 4 4 4 3 3 4 4 3 3 3 3 3 2 1 1 3 4 3 3 2
9 9 8 7 7 6 4 4 5 5 5 4 3 3 3 2 2 2 2 2 3 3 4 4 4 4 3 4 4 4 4 3 3 3 3 3 3 2 1 3 4 4 3
9 9 8 8 7 6 5 4 6 5 4 3 3 3 3 2 3 3 2 1 2 2 3 3 3 3 3 4 4 3 4 3 3 3 2 2 2 3 2 2 3 3 3
10 10 9 8 7 7 6 5 6 5 4 3 3 4 3 2 2 2 1 1 2 2 2 3 3 3 3 4 4 4 3 3 4 3 2 2 2 2 2 2 3 3 3
11 10 10 9 8 8 7 6 6 5 4 3 2 3 3 2 2 2 1 2 2 1 2 2 2 3 3 4 3 3 3 3 4 4 4 2 2 2 2 1 2 3 3
11 11 10 10 9 8 7 6 6 5 5 3 2 2 3 3 2 1 2 2 2 2 2 2 2 2 3 3 3 2 3 3 3 3 4 3 3 3 2 1 1 1 2
10 10 9 9 9 8 7 7 6 6 5 4 3 3 3 3 2 2 3 2 2 2 1 2 2 2 2 3 3 2 3 3 2 1 2 3 2 3 3 2 2 1 1
10 10 9 9 8 8 7 6 6 6 5 4 3 4 2 2 2 2 2 1 1 1 1 2 2 3 3 2 2 2 3 3 4 3 3 3 3 3 3 3 2 2 1
10 10 9 9 8 8 8 7 7 6 5 4 4 4 3 2 2 2 1 1 1 2 2 3 3 3 3 3 3 3 3 3 4 4 4 4 3 3 3 2 3 2 2
10 10 9 9 9 8 8 7 7 6 6 5 4 4 4 3 2 2 2 2 2 2 2 3 3 3 3 3 3 4 4 3 3 3 4 4 4 4 3 3 3 3 4
9 10 9 8 8 8 7 7 7 7 6 5 4 4 3 3 3 2 1 1 2 2 2 2 2 3 3 4 4 4 5 4 4 3 3 2 2 3 4 3 3 4 4
10 10 10 9 8 8 8 7 7 7 7 6 5 4 3 3 3 2 1 1 1 2 2 3 3 3 3 4 5 5 6 5 4 4 3 2 2 2 3 2 2 3 3
10 10 10 10 10 10 9 8 7 8 7 6 5 4 4 3 3 2 1 1 1 1 2 2 2 3 3 5 7 6 6 5 5 4 3 2 1 2 4 5 5 5 4
8 9 10 10 10 10 9 9 8 8 8 7 6 5 5 4 3 3 2 1 1 0 1 1 1 1 1 4 6 8 6 5 4 4 3 4 3 4 3 5 6 7 8
6 7 8 9 9 9 8 8 8 8 8 7 7 6 5 5 4 3 2 2 1 1 1 1 1 0 1 3 5 8 5 5 4 3 3 3 3 4 5 5 5 4 5
4 5 6 8 8 8 9 9 8 8 7 7 7 7 6 6 5 4 4 3 2 1 2 2 2 2 1 2 4 6 4 4 4 3 3 3 2 5 8 5 5 5 5
3 4 4 6 7 7 8 8 8 8 8 8 7 7 6 6 6 5 4 3 3 3 2 2 2 2 2 3 3 4 3 4 4 3 2 3 3 5 7 4 4 5 6
4 3 3 3 4 6 7 7 7 8 7 7 6 6 6 6 6 5 4 4 3 3 3 3 3 3 3 3 4 3 2 3 4 3 3 2 5 6 8 7 4 7 9
4 3 3 3 3 4 5 6 5 5 6 6 6 6 6 6 5 5 4 4 4 4 4 4 4 3 3 4 5 6 5 5 3 4 3 3 7 9 11 9 10 14 12
3 3 3 3 3 3 3 4 4 5 6 6 6 5 5 5 5 5 5 4 4 4 4 3 3 3 2 3 6 7 7 7 4 4 7 9 10 10 9 11 14 11 6
3 3 3 3 3 3 3 3 4 5 5 6 5 5 5 5 5 4 4 4 4 4 4 4 4 3 2 2 2 3 4 5 5 5 7 11 12 10 10 10 8 5 5
2 2 3 2 2 2 2 3 4 4 5 5 5 5 5 5 4 4 4 5 4 5 5 4 3 3 3 4 4 3 3 3 3 4 4 4 4 4 4 5 5 4 4
2 1 1 2 2 2 2 3 3 3 4 4 4 3 3 3 4 4 3 6 6 8 9 9 7 5 6 7 7 7 7 7 7 5 4 5 5 5 5 5 5 4 4
Wind_Direction
145 139 141 144 147 128 121 127 127 114 99 72 65 75 72 61 63 66 50 35 35 23 17 24 23 24 24 10 8 3 355 353 354 359 340 332 18 49 47 27 15 18 23
148 145 153 148 131 114 114 111 105 100 91 78 84 95 89 87 90 64 55 40 39 26 18 21 12 18 24 11 7 10 359 350 7 7 355 355 358 2 14 28 30 20 14
160 159 161 147 136 126 123 122 121 115 111 105 74 64 71 47 74 73 63 46 53 40 14 17 8 8 24 18 11 15 14 356 353 18 35 29 355 329 338 10 28 17 19
157 155 156 149 146 139 134 128 118 115 113 108 79 69 81 72 69 73 73 59 56 48 22 15 8 14 25 23 10 22 3 9 356 350 11 31 4 346 335 342 356 358 17
163 154 155 150 145 137 132 123 112 99 92 95 91 61 58 67 69 63 57 59 63 53 35 15 10 13 21 24 24 14 10 10 6 358 354 354 351 349 19 326 335 342 344
162 154 149 144 137 132 130 120 114 106 104 106 111 105 90 75 67 57 42 36 62 51 39 20 13 18 20 20 13 13 13 8 4 1 3 2 1 348 356 335 329 329 322
163 158 153 150 144 143 145 140 132 131 138 153 148 134 122 111 96 81 56 34 58 49 35 32 17 22 21 18 13 8 360 8 10 4 354 352 346 342 352 350 326 323 315
167 165 160 155 152 153 155 154 148 149 155 172 154 132 130 112 89 71 64 59 66 58 39 37 34 34 26 17 13 4 354 15 9 2 1 349 340 351 356 347 341 330 327
166 164 158 156 157 159 162 161 155 157 163 167 143 113 106 95 81 61 61 65 62 47 28 18 44 45 39 25 11 12 3 12 5 1 3 353 341 345 335 347 355 337 325
161 156 155 156 158 158 162 162 165 166 165 163 152 117 99 102 84 57 58 45 45 34 2 20 32 37 42 42 24 6 360 358 347 353 356 345 340 339 337 336 327 315 275
160 158 156 156 155 156 161 166 170 163 158 158 139 124 124 115 112 92 75 62 59 34 27 30 29 31 27 40 31 2 2 354 348 353 0 348 345 336 335 337 333 329 325
159 156 155 156 159 165 170 173 173 160 154 151 137 140 143 142 136 119 94 42 45 27 19 35 31 24 20 22 18 355 359 353 348 346 349 345 350 347 337 334 332 328 321
155 154 156 162 166 169 172 172 167 156 153 150 152 163 159 152 142 113 78 28 28 28 26 28 26 24 20 16 7 356 350 349 346 344 346 350 359 354 342 341 340 331 330
158 158 161 165 167 170 172 170 166 157 157 158 168 173 159 150 137 112 92 45 28 13 13 19 23 24 23 22 7 1 346 339 335 331 333 351 11 358 344 341 342 339 331
164 166 167 170 171 173 174 173 170 163 162 163 170 170 161 144 132 125 131 91 40 7 15 17 19 14 20 22 15 354 335 333 326 326 334 349 9 348 325 325 326 330 315
171 171 174 175 178 178 178 177 172 167 163 167 169 163 153 139 138 144 145 104 54 11 18 11 17 9 16 19 10 352 333 325 320 322 330 326 330 316 316 314 306 295 292
174 175 179 179 182 183 180 177 173 166 167 169 165 159 159 159 164 164 146 152 191 142 22 342 358 27 33 0 351 343 327 314 315 322 327 329 354 354 334 317 309 306 297
173 179 180 178 181 178 172 169 165 167 172 171 168 166 165 165 164 163 173 189 198 172 188 263 284 306 306 336 338 334 318 303 304 312 326 332 359 5 358 338 329 310 303
174 177 177 175 178 175 169 167 170 172 174 173 171 170 167 168 171 177 187 192 187 196 225 237 246 245 233 299 321 330 309 302 307 313 336 355 18 354 350 339 324 318 308
142 156 166 168 169 165 162 169 175 176 178 175 174 172 170 171 177 184 190 191 190 206 221 236 243 246 217 242 286 314 304 309 311 313 328 1 343 334 339 331 322 316 307
117 120 132 145 153 153 159 175 182 185 176 166 168 171 170 174 180 183 188 190 198 211 227 235 242 239 219 219 235 263 286 303 309 314 316 310 313 315 314 311 293 287 293
116 124 125 122 129 147 162 181 188 171 153 156 165 172 175 184 185 180 190 199 203 214 230 237 244 237 220 210 222 238 254 278 289 295 298 297 300 304 302 297 286 291 295
125 128 131 135 148 160 171 186 170 148 149 159 170 178 183 185 179 182 195 205 206 215 229 231 237 241 226 215 224 233 250 264 266 273 284 292 293 294 291 281 283 289 283
128 131 138 153 167 167 169 172 155 155 162 173 180 187 192 192 192 193 198 204 209 217 226 231 235 239 236 225 215 226 244 257 269 279 288 291 286 278 271 278 279 265 255
108 128 149 166 174 168 172 166 159 172 183 188 191 196 197 194 194 198 207 211 215 214 218 226 226 231 242 234 227 231 245 252 264 288 282 278 278 273 269 271 270 267 268
96 104 125 152 175 178 172 167 167 182 194 201 202 198 193 192 194 200 221 230 226 228 227 226 227 238 235 234 240 246 254 265 278 288 276 276 272 269 271 273 275 273 271